Regional Weather Roundup
Issued by NWS Memphis, TN

Home | Current Version | Previous Version | Text Only | Print | Product List | Glossary On
Versions: 1 2 3 4 5 6 7 8 9 10 11 12 13 14 15 16 17 18 19 20 21 22 23 24 25 26 27 28 29 30 31 32 33 34 35 36 37 38 39 40 41 42 43 44 45 46 47 48 49 50
000
ASUS44 KMEG 230510
RWRMEG
MEMPHIS CWA HOURLY WEATHER ROUNDUP
NATIONAL WEATHER SERVICE MEMPHIS TN
1100 PM CST MON DEC 22 2014

...WEST TENNESSEE...

CITY           SKY/WX    TMP DP  RH WIND       PRES   REMARKS
MEMPHIS INTL   CLOUDY    56  54  93 SW3       29.65F
NWS MEMPHIS      N/A     55 N/A N/A MISG        N/A
JACKSON        LGT RAIN  56  54  93 W7        29.67R
LEXINGTON      CLOUDY    54  54 100 S7        29.66F
SAVANNAH       CLOUDY    55  55 100 S9        29.68F
DYERSBURG      CLOUDY    55  43  62 CALM      29.67R
UNION CITY     CLOUDY    54  52  94 S7        29.64S
PARIS          CLOUDY    52  52 100 S5        29.66F
HUNTINGDON     CLOUDY    52  52 100 S6        29.67S


...EASTERN ARKANSAS...

CITY           SKY/WX    TMP DP  RH WIND       PRES   REMARKS
JONESBORO      CLOUDY    53  53 100 S7        29.65R FOG
WEST MEMPHIS   CLOUDY    57  57 100 SW3       29.64F
BATESVILLE     PTCLDY    52  48  87 W3        29.66R
NEWPORT        FOG       50  50 100 SW7       29.67R VSB 3/4
WALNUT RIDGE   MOCLDY    52  48  87 SW8       29.63F
BLYTHEVILLE    CLOUDY    55  54  96 SW7       29.66R
SEARCY         FOG       50  50 100 W3        29.67S VSB 1
STUTTGART      CLOUDY    52  48  87 SW6       29.66S VSB 1/4
PINE BLUFF     FOG       51  50  96 CALM      29.65F VSB 1/2
MONTICELLO     CLOUDY    60  57  89 S3        29.64F


...NORTH MISSISSIPPI...

CITY           SKY/WX    TMP DP  RH WIND       PRES   REMARKS
TUPELO         CLOUDY    58  56  93 S10       29.70S FOG
OXFORD         CLOUDY    55  55 100 S6        29.71R FOG
OLIVE BRANCH   MOCLDY    54 N/A N/A S5        29.66F
TUNICA         CLOUDY    55  54  94 S6        29.67S FOG
CLARKSDALE       N/A     55  55 100 CALM      29.67R VSB 3/4
CORINTH        CLOUDY    57  55  94 S8        29.68S FOG
GRENADA        RAIN      59  57  94 CALM      29.69R
GREENWOOD      CLOUDY    62  58  86 W6        29.68R
COLUMBUS       CLOUDY    59  59 100 S6        29.71R
STARKVILLE     CLOUDY    55  55 100 SE6       29.70S
GOLDEN TRIANGL CLOUDY    57  55  94 S12       29.70F


...SOUTHEAST MISSOURI...

CITY           SKY/WX    TMP DP  RH WIND       PRES   REMARKS
WEST PLAINS    CLOUDY    48  45  89 SW7       29.63R
POPLAR BLUFF   CLOUDY    53  50  89 SW10      29.61R
CAPE GIRARDEAU CLOUDY    53  52  96 SW12      29.62R


...NORTHWEST ALABAMA...

CITY           SKY/WX    TMP DP  RH WIND       PRES   REMARKS
MUSCLE SHOALS  CLOUDY    55  52  89 SE10      29.73F


...MIDDLE TENNESSEE...

CITY           SKY/WX    TMP DP  RH WIND       PRES   REMARKS
NASHVILLE      CLOUDY    52  50  93 S13       29.73F
CLARKSVILLE    CLOUDY    53  51  93 S9        29.68S
COLUMBIA       CLOUDY   N/A N/A N/A S8        29.70F


...WESTERN KENTUCKY...

CITY           SKY/WX    TMP DP  RH WIND       PRES   REMARKS
PADUCAH        CLOUDY    54  52  93 S7        29.62F
FORT CAMPBELL  CLOUDY    52  52 100 S8        29.67F


...CENTRAL ARKANSAS...

CITY           SKY/WX    TMP DP  RH WIND       PRES   REMARKS
LITTLE ROCK    CLOUDY    54  48  82 NW5       29.67S


SKY/WX REPORTED AS FAIR MEANS FEW OR NO CLOUDS BELOW
12 THOUSAND FEET.




USA.gov is the U.S. government's official web portal to all federal, state and local government web resources and services.